Showing default

LAGEOS 1, 8820

Orbit data source: Space-Track

LAGEOS 1, 8820 is a payload satellite owned by NASA MSFC (US) that was launched on Tue, 04 May 1976 UTC via a DELTA 2913 launch vehicle from the Air Force Western Test Range (AFWTR). Payload-class satellites include a variety of spacecraft equipped with specific instruments for various scientific and technological missions. These include communications satellites like Starlink; space stations such as the ISS; scientific satellites like the Hubble; Earth observation satellites from companies like Planet Labs, Umbra, and HawkEye 360; GPS; miniature CubeSats for education and research; and military/defense satellites.

Loading next visibility...
Identifier
8820, 1976-039A
Orbit
Active
Last TLE update
8 hours ago
Origin
Manufacturer
Bendix
Mission
Operational Civil Geodetic
Bus & Motor
LAGEOS, Unknown motor
Mass
411 kg wet, 411 kg dry
Launch date (UTC)
1976-05-04 (49 years ago)
Launch vehicle
DELTA 2913
Launch site
Air Force Western Test Range (AFWTR)
Object type
Payload
Rocket body
Debris
Shape & HBR
Sphere, 0.6 m
Radar Cross Section
0.283 m², Medium (>0.1 m² and < 1m²)

Expand to show TLE details & history

TLE from 8 hours ago
0 LAGEOS 1
1 08820U 76039A   25182.94385734 -.00000006  00000-0  00000-0 0  9991
2 08820 109.8567  59.3785 0044605  17.1184 358.9258  6.38665067890772
Epoch: 2025-07-01T22:39Z
TLE epoch observation values (Epoch: 2025-07-01T22:39:09.274Z)
Latitude
15.0351°
Longitude
153.80827°
Altitude
5,839.078 km
Speed
5.726 km/s
True Right ascension
03h 35m 18s
True Declination
14° 59' 06"
Sunlit
Object was in daylight at epoch
Visualization orbit readout
Latitude
32.20237°
Longitude
146.3638°
Altitude
5,843.737 km
Speed
5.725 km/s
Apparent Right ascension
04h 01m 12s
Apparent Declination
9° 38' 26"
Sunlit
Object is in daylight
Visualization observer readout
Local Sidereal Time
18:03:18
Azimuth
36.639° NE
Elevation
-32.948°
Doppler factor
1
Orbital elements
Apogee altitude
5,946.61 km
Perigee altitude
5,837.149 km
Semi-major axis
12,270.016 km
Eccentricity
0.00446
Inclination
109.8567°
RAAN
59.3785°
Arg. of periapsis
17.1184°
True anomaly
Unknown
Mean anomaly
358.9258°
Eccentric anomaly
Unknown
Mean motion
1.59689 °/min
Orbital period
225.44 mins
BSTAR
0
Loading maneuver chart data...
Loading SW <> Apogee altitude chart data...
Loading historical data...
Loading historical data...
Loading historical data...
Loading historical data...
Loading historical data...
Loading historical data...
Loading historical data...
Other satellites on launch #39 in the year 1976 (1976-05-04 UTC)

LAGEOS 1 Visibility forecast

Observer location: undefined°, undefined°

Span
Click to sort rows by Start time (UTC) header in descending order
Start Az.
Max El. time (UTC)
Max El. Az.
Max El.
End time (UTC)
End Az.
53 mins2025-07-02 06:50:35.461Z28.667° NE2025-07-02 07:16:35.461Z322.355° NNW39.633°2025-07-02 07:43:35.461Z250.903° W
43 mins2025-07-02 10:17:35.461Z57.882° ENE2025-07-02 10:38:35.461Z5.909° NNE29.599°2025-07-02 11:00:35.461Z312.312° NW
53 mins2025-07-02 13:36:35.461Z123.994° SE2025-07-02 14:02:35.461Z45.875° ENE43.003°2025-07-02 14:29:35.461Z333.267° NNW
50 mins2025-07-02 17:12:35.461Z196.473° SSW2025-07-02 17:36:35.461Z259.513° W31.212°2025-07-02 18:02:35.461Z326.511° NNW
45 mins2025-07-03 01:58:35.461Z41.094° NE2025-07-03 02:20:35.461Z95.87° ESE25.574°2025-07-03 02:43:35.461Z152.028° SSE
52 mins2025-07-03 05:29:35.461Z26.231° NE2025-07-03 05:56:35.461Z302.868° NW44.436°2025-07-03 06:21:35.461Z226.303° WSW
|